Regional Weather Roundup
Issued by NWS State College, PA

Home | Current Version | Previous Version | Graphics & Text | Print | Product List | Glossary Off
Versions: 1 2 3 4 5 6 7 8 9 10 11 12 13 14 15 16 17 18 19 20 21 22 23 24 25 26 27 28 29 30 31 32 33 34 35 36 37 38 39 40 41 42 43 44 45 46 47 48 49 50

000
ASUS41 KCTP 022003
RWRCTP

REGIONAL WEATHER ROUNDUP
NATIONAL WEATHER SERVICE STATE COLLEGE PA
400 PM EDT TUE SEP 02 2014

Note: "fair" indicates few or no clouds below 12,000 feet with no
significant weather and/or obstructions to visibility.

* = STATION THAT DOES NOT REPORT PRECIPITATION /E.G. RAIN...SNOW...ETC/
    THUNDER OR FOG.

PAZ002>004-007>009-013>016-020>023-029>032-022100-
WESTERN PENNSYLVANIA

CITY           SKY/WX    TMP DP  RH WIND       PRES   REMARKS
ERIE           CLOUDY    73  65  75 SW6       29.87R
MEADVILLE      CLOUDY    71  66  84 W7        29.89F
FRANKLIN*      CLOUDY    68  64  88 W10G21    29.90R THUNDER
NEW CASTLE     LGT RAIN  72  72 100 W9        29.90R
BEAVER COUNTY  LGT RAIN  72  68  88 W9        29.89S
BUTLER*        CLOUDY    75  72  88 SW10      29.88F
PITTSBURGH INT CLOUDY    79  67  66 W10       29.88F
PITTSBURGH     PTSUNNY   82  67  60 SW16G25   29.87F
INDIANA*       MOSUNNY   81  73  78 SW12      29.91F HAZE
LATROBE        PTSUNNY   81  73  78 SW17G29   29.89F
WASHINGTON CO* CLOUDY    77  68  73 SW8G25    29.91S
$$

PAZ004>006-010>012-017>019-024>028-033>037-041-042-045-046-049>053-022100-
CENTRAL PENNSYLVANIA

CITY           SKY/WX    TMP DP  RH WIND       PRES   REMARKS
BRADFORD       CLOUDY    74  64  71 S9        29.88F
DUBOIS         PTSUNNY   75  68  78 S9        29.87F
CLEARFIELD     PTSUNNY   78  68  71 SW8       29.89F
JOHNSTOWN      CLOUDY    80  66  62 SW15G21   29.92F
ALTOONA        CLOUDY    84  68  58 SW12      29.90F
STATE COLLEGE  MOSUNNY   81  70  69 S9        29.88F
WILLIAMSPORT   MOSUNNY   87  63  44 S12       29.82F
SELINSGROVE    MOSUNNY   87  69  54 VRB3      29.85F
FT INDIANTOWN  SUNNY     90  70  51 W10       29.86F HX  95
CAPITAL CITY   MOSUNNY   88  68  51 SW7       29.86F
HARRISBURG     PTSUNNY   90  70  51 SW3       29.85F HX  95
YORK           MOSUNNY   86  70  58 SW8       29.88F
$$

PAZ038>040-043-044-047-048-054-055-060>062-067>071-022100-
EASTERN PENNSYLVANIA

CITY           SKY/WX    TMP DP  RH WIND       PRES   REMARKS
SCRANTON       SUNNY     88  65  46 SW10G18   29.86F
MOUNT POCONO   SUNNY     83  62  49 W13       29.93F
ALLENTOWN      MOSUNNY   90  67  46 SW12      29.86F
QUAKERTOWN*    CLEAR     88  68  51 MISG      29.88F
READING        SUNNY     90  67  46 SW10      29.85F
LANCASTER      MOSUNNY   88  68  51 SW12      29.87F
COATESVILLE    PTCLDY   N/A N/A N/A MISG      29.90F FOG
POTTSTOWN      MOSUNNY   88  68  51 SW8       29.88F
BLUE BELL      SUNNY     90  70  51 W3        29.86F HX  95
DOYLESTOWN     MOSUNNY   89  67  47 W13       29.87F
WILLOW GROVE   NOT AVBL
NORTH PHILA    SUNNY     92  65  40 W12       29.87F
PHILADELPHIA   PTSUNNY   90  69  50 W13       29.87F
$$


USA.gov is the U.S. government's official web portal to all federal, state and local government web resources and services.